Regional Weather Roundup
Issued by NWS

Home | Current Version | Previous Version | Text Only | Print | Product List | Glossary Off
Versions: 1 2 3 4 5 6 7 8 9 10 11 12 13 14 15 16 17 18 19 20 21 22 23 24 25 26 27 28 29 30 31 32 33 34 35 36 37 38 39 40 41 42 43 44 45 46 47 48 49 50

000
ASUS43 KDTX 020710
RWRMI
MICHIGAN HOURLY REGIONAL WEATHER ROUNDUP
NATIONAL WEATHER SERVICE DETROIT/PONTIAC MI
300 AM EDT SUN AUG 02 2015

NOTE: "FAIR" INDICATES FEW OR NO CLOUDS BELOW 12,000 FEET WITH NO
SIGNIFICANT WEATHER AND/OR OBSTRUCTION TO VISIBILITY.

MIZ047>049-052>055-059>063-066>070-074>076-081>083-020800-
SOUTHEAST LOWER MICHIGAN

CITY           SKY/WX    TMP DP  RH WIND       PRES   REMARKS
ADRIAN         CLEAR     61  58  90 CALM      29.91S
ALMA           CLEAR     58  55  89 CALM      29.86F
ANN ARBOR      CLEAR     58  56  93 CALM      29.89S
BAD AXE        CLEAR     58  52  82 CALM      29.86S
CARO           CLEAR     54  53  96 CALM      29.86S
DETROIT CITY   CLEAR     66  53  63 SW3       29.89S
DETROIT        PTCLDY    65  56  72 CALM      29.89F
FLINT          CLEAR     58  52  80 SW3       29.88S
GROSSE ILE     PTCLDY    68  57  68 W5        29.88S
HILLSDALE      CLEAR     65  60  85 CALM      29.92S
HOWELL         CLEAR     61  55  78 SW3       29.89S

CITY           SKY/WX    TMP DP  RH WIND       PRES   REMARKS
JACKSON        PTCLDY    63  57  81 SW5       29.90S
LAMBERTVILLE   CLEAR     64  58  80 CALM      29.91R
LANSING        CLEAR     63  55  75 CALM      29.88F
LAPEER         FAIR      54  53  96 CALM      29.88S
MASON          CLEAR     57  54  88 CALM      29.89S
MONROE         PTCLDY    63  58  84 CALM      29.89S
MT. CLEMENS    CLEAR     66  53  61 W5        29.86S
PONTIAC        CLEAR     63  54  72 SW5       29.88S
PORT HOPE        N/A     63  56  78 SW6       29.83S
PORT HURON     CLEAR     54  52  94 CALM      29.87F
TRI CITIES     CLEAR     63  53  70 SW7       29.86S
MIDLAND        FAIR      55  51  88 CALM      29.85R
TROY           CLEAR     66  53  63 W3        29.90S
SAGINAW HB     CLEAR     61  54  77 SW6       29.85S
$$
MIZ043>046-050>051-056>058-064>065-071>073-077>080-020800-
SOUTHWEST LOWER MICHIGAN

CITY           SKY/WX    TMP DP  RH WIND       PRES   REMARKS
BATTLE CREEK   CLEAR     67  57  70 S5        29.90S
BENTON HARBOR  CLEAR     73  66  78 SW12      29.87F
BIG RAPIDS     CLEAR     58  55  90 CALM      29.85F
COLDWATER      CLEAR     64  60  85 SW5       29.91S
FREMONT        FAIR      61  58  92 CALM      29.85S
HOLLAND        CLEAR     63  57  81 S5        29.86F
GRAND RAPIDS   CLEAR     64  57  78 S9        29.86F
IONIA          FAIR      59  54  83 S3        29.86F
KALAMAZOO      CLEAR     66  59  78 SW6       29.89F
LUDINGTON      CLEAR     64  59  86 E3        29.83S
MARSHALL       PTCLDY    65  57  76 CALM      29.89F
MOUNT PLEASANT CLEAR     62  53  71 W3        29.84F
MUSKEGON       CLEAR     66  59  78 CALM      29.85S
SOUTH HAVEN    CLEAR     67  64  89 SW3       29.87S
$$
MIZ016>042-020800-
NORTHERN LOWER MICHIGAN

CITY           SKY/WX    TMP DP  RH WIND       PRES   REMARKS
ALPENA         CLEAR     60  52  74 SW5       29.79F
BEAVER ISLAND  CLEAR     67  61  80 SW9       29.75S HAZE
BELLAIRE       CLEAR     56  52  85 CALM      29.79F
CADILLAC       CLEAR     58  54  85 CALM      29.85S
CHARLEVOIX     CLEAR     67  56  67 S8        29.80S
FRANKFORT      CLEAR     69  63  80 S3        29.80F
GAYLORD        CLEAR     62  51  67 SW7       29.81F
GRAYLING       CLEAR     62  52  68 SW6       29.83F
HARBOR SPRINGS CLEAR     63  56  77 CALM      29.77S
HOUGHTON LAKE  CLEAR     65  55  70 SW7       29.85S
MANISTEE       CLEAR     55  52  88 E5        29.82F
OSCODA         CLEAR     59  52  79 SW7       29.82S
PELLSTON       CLEAR     60  53  77 CALM      29.77F
ROGERS CITY    CLEAR     62  54  74 SW7       29.78F
TRAVERSE CITY  CLEAR     66  54  65 VRB3      29.78F
$$
MIZ007>008-015-020800-
EASTERN UPPER MICHIGAN

CITY           SKY/WX    TMP DP  RH WIND       PRES   REMARKS
KINROSS        MOCLDY    63  63 100 S5        29.73F
MACKINAC ISLAN   N/A     65  60  81 S8        29.74F
NEWBERRY       PTCLDY    60  58  91 SW9       29.72F
S. S. MARIE    CLOUDY    60  57  89 E3        29.72F
MUNISING         N/A     67  52  58 SW9       29.69F
$$
MIZ004>006-011>014-085-020800-
CENTRAL UPPER MICHIGAN

CITY           SKY/WX    TMP DP  RH WIND       PRES   REMARKS
MANISTIQUE     CLEAR     61  57  88 SW6       29.73S
ESCANABA       CLEAR     61  54  77 W6        29.73F
MENOMINEE      CLEAR     66  52  59 SW8       29.76S
SAWYER-GWINN   CLEAR     63  53  68 SW8       29.72F
$$
MIZ001>003-009>011-084-020800-
WESTERN UPPER MICHIGAN

CITY           SKY/WX    TMP DP  RH WIND       PRES   REMARKS
IRON MOUNTAIN  CLEAR     58  53  84 CALM      29.74F
HOUGHTON       PTCLDY    69  54  58 W13       29.65F
COPPER HARBOR    N/A     73  54  51 W6        29.62F
IRONWOOD       CLEAR     68  59  73 SW12G17   29.67F
$$

ABBREVIATIONS USED IN REMARKS
   TC - TEMPERATURE IN CELSIUS
  WCI - WIND CHILL INDEX
   HX - HEAT INDEX
  VSB - VISIBILITY



USA.gov is the U.S. government's official web portal to all federal, state and local government web resources and services.